Вернуться в каталог

ASTRA 4A

SIRIUS 4

АктивенСвязьGEO
NORAD 32299·PAYLOAD·🇱🇺 Luxembourg

Запущен Nov 17, 2007 с Baikonur Cosmodrome

Loading…

TLE

СвежийSource: CelesTrak SupGP

Эпоха: Sep 13, 2026, 23:30 UTC

1 32299C 07057A   26256.97916667  .00000082  00000+0  00000+0 0  2560
2 32299   0.0387 309.8709 0002444 224.3800 176.0247  1.00272772    10

Отслеживайте ASTRA 4A в реальном времени с AllMySat

Download on the App Store